Location: Gorze? G�rny
(49.8500°N, 19.5000°E)
Time: 20:43:21
(UTC+00:00)

Cosmos 1674 Rocket - Pass Details

Date: 26 September 2021
Orbit: 601 x 631 km, 82.5° (Epoch: 25 October)

Event Time Altitude Azimuth Distance (km) Brightness Sun altitude
Rises 17:11:59 0° 347° (NNW) 2,885 7.3 -7.4°
Reaches altitude 10° 17:14:14 10° 344° (NNW) 1,971 6.5 -7.8°
Maximum altitude 17:18:32 61° 264° (W) 688 4.2 -8.5°
Drops below altitude 10° 17:22:46 10° 184° (S) 1,944 6.1 -9.1°
Sets 17:24:59 0° 181° (S) 2,841 6.9 -9.5°
